Погода в Даусузе

Россия / Карачаево-Черкесская Республика     43°47′46″N   41°32′54″E
темп.,
°C
ветер,
м/с
пор.,
м/с
влажн.,
%
обл.,
%
осадки,
мм/ч
давл.,
гПа
погр.,
м
28 сентября, вт
вт2800:00+6св119778 0.0 1017134
03:00+6юв119065 0.0 101742
06:00+4ююз22907 0.0 101817
09:00+9ссв217447 0.0 1016572
12:00+7св2294100 0.8 1017332
15:00+7ссв2396100 1.1 1018352
18:00+6ссв1298100 0.1 1020170
21:00+6в019883 0.1 102176
29 сентября, ср
ср2900:00+5ююв119534 0.0 102126
03:00+3ю22927 0.0 102216
06:00+3ююз228938 0.0 102222
09:00+8ссв217534 0.0 1020382
12:00+11ссв3266100 0.0 10181078
15:00+9с2278100 0.1 1019682
18:00+7с1293100 0.1 1021232
21:00+5ссв1199100 0.1 1022165
30 сентября, чт
чт3000:00+5св1199100 0.1 1022135
03:00+5св1199100 0.1 1022138
06:00+5всв119999 0.0 1023146
09:00+7св219088 0.0 1022363
12:00+8ссв218079 0.0 1021612
15:00+8с217792 0.1 1021577
18:00+5св129291 0.0 1022187
21:00+4св129884 0.0 1023105
1 октября, пт
пт100:00+4св119797 0.0 1023126
03:00+3св119797 0.0 1022154
06:00+3всв119789 0.0 1022164
09:00+5св219097 0.0 1022384
12:00+6ссв2185100 0.5 1021532
15:00+5с2298100 5.4 1023224
18:00+5всв1299100 0.1 1024127
21:00+4всв119958 0.1 102572
2 октября, сб
сб200:00+3ю119420 0.0 102518
03:00+2ююз11915 0.0 102518
06:00+2ю21905 0.0 102518
09:00+8св11780 0.0 1023274
12:00+12ссв315915 0.0 1021768
15:00+12ссв226049 0.1 10201042
18:00+6ссв019314 0.0 102211
21:00+5ю1192100 0.0 102314